This demonstration page uses our WeatherBlox Daily Observations layout. Learn more.

40.92945, -100.16068

Hourly Observations for January 23, 2019

Temp ( °F °C ) Dew Point ( °F °C ) Humidity (%) Winds ( mph kmh ) Pressure ( in mb ) Visibility ( mi km ) Precip ( " mm )
12:15 am 00:15 Clear 17 -8.3 13 -10.5 84 84 WNW 9 15 30.24 1024 10 16.09344 0 0
12:35 am 00:35 Clear 16 -8.9 12 -10.9 86 86 WNW 10 17 30.24 1024 10 16.09344 0 0
12:55 am 00:55 Clear 15 -9.2 12 -11.2 86 86 WNW 9 15 30.24 1024 10 16.09344 0 0
1:15 am 01:15 Clear 14 -9.8 11 -11.9 85 85 WNW 6 9 30.27 1025 10 16.09344 0 0
1:35 am 01:35 Clear 13 -10.6 9 -12.6 85 85 W 3 6 30.27 1025 10 16.09344 0 0
1:55 am 01:55 Clear 13 -10.6 10 -12.5 86 86 Calm 30.27 1025 10 16.09344 0 0
2:15 am 02:15 Clear 11 -11.5 8 -13.3 87 87 W 3 6 30.27 1025 10 16.09344 0 0
2:35 am 02:35 Clear 11 -11.8 8 -13.6 87 87 WNW 9 15 30.3 1026 10 16.09344 0 0
2:55 am 02:55 Clear 13 -10.7 10 -12.5 87 87 WNW 8 13 30.3 1026 10 16.09344 0 0
3:15 am 03:15 Clear 13 -10.7 9 -12.6 86 86 WNW 3 6 30.27 1025 10 16.09344 0 0
3:35 am 03:35 Clear 12 -11.1 8 -13.1 85 85 WNW 5 7 30.27 1025 10 16.09344 0 0
3:55 am 03:55 Clear 10 -12.2 7 -14 87 87 NW 6 9 30.27 1025 10 16.09344 0 0
4:15 am 04:15 Clear 9 -12.7 6 -14.6 86 86 WNW 7 11 30.27 1025 10 16.09344 0 0
4:35 am 04:35 Clear 11 -11.5 8 -13.5 85 85 WNW 10 17 30.27 1025 10 16.09344 0 0
4:55 am 04:55 Clear 11 -11.5 8 -13.5 85 85 WNW 8 13 30.24 1024 10 16.09344 0 0
5:15 am 05:15 Clear 11 -11.5 8 -13.5 85 85 WNW 7 11 30.24 1024 10 16.09344 0 0
5:35 am 05:35 Clear 11 -11.5 8 -13.5 85 85 WNW 8 13 30.24 1024 10 16.09344 0 0
5:55 am 05:55 Clear 10 -12.1 7 -14.1 85 85 Calm 30.21 1023 10 16.09344 0 0
6:15 am 06:15 Clear 10 -12.2 6 -14.2 85 85 W 5 7 30.21 1023 10 16.09344 0 0
6:35 am 06:35 Clear 9 -12.6 6 -14.5 86 86 W 6 9 30.21 1023 10 16.09344 0 0
6:55 am 06:55 Clear 8 -13.1 5 -15 86 86 WNW 6 9 30.21 1023 10 16.09344 0 0
7:15 am 07:15 Clear 8 -13.4 4 -15.4 85 85 WNW 3 6 30.21 1023 10 16.09344 0 0
7:35 am 07:35 Clear 9 -12.9 5 -14.9 85 85 Calm 30.21 1023 10 16.09344 0 0
7:55 am 07:55 Clear 8 -13.5 4 -15.6 84 84 WNW 6 9 30.21 1023 10 16.09344 0 0
8:15 am 08:15 Sunny 9 -12.6 6 -14.5 86 86 W 7 11 30.21 1023 10 16.09344 0 0
8:35 am 08:35 Sunny 12 -11 9 -13 85 85 WNW 7 11 30.18 1022 10 16.09344 0 0
8:55 am 08:55 Sunny 13 -10.3 10 -12.5 84 84 WNW 6 9 30.18 1022 10 16.09344 0 0
9:15 am 09:15 Sunny 15 -9.3 11 -11.5 84 84 WNW 10 17 30.18 1022 10 16.09344 0 0
9:35 am 09:35 Sunny 19 -7.5 14 -10 83 83 WNW 12 19 30.15 1021 10 16.09344 0 0
9:55 am 09:55 Sunny 22 -5.6 16 -8.7 79 79 WNW 18 30 30.15 1021 10 16.09344 0 0
10:15 am 10:15 Sunny 24 -4.6 17 -8.2 76 76 WNW 16 26 30.12 1020 10 16.09344 0 0
10:35 am 10:35 Sunny 25 -4 18 -8 74 74 WNW 17 28 30.12 1020 10 16.09344 0 0
10:55 am 10:55 Sunny 26 -3.2 18 -7.6 72 72 WNW 20 31 30.12 1020 10 16.09344 0 0
11:15 am 11:15 Sunny 28 -2.5 19 -7.1 71 71 WNW 20 31 30.09 1019 10 16.09344 0 0
11:35 am 11:35 Sunny 29 -1.7 20 -6.6 70 70 WNW 22 35 30.09 1019 10 16.09344 0 0
11:55 am 11:55 Sunny 31 -0.8 22 -5.7 70 70 NW 18 30 30.06 1018 10 16.09344 0 0
12:15 pm 12:15 Sunny 32 0 23 -5.1 69 69 NW 18 30 30.06 1018 10 16.09344 0 0
12:35 pm 12:35 Sunny 33 0.5 24 -4.7 68 68 WNW 17 28 30 1016 10 16.09344 0 0
12:55 pm 12:55 Sunny 34 1.2 24 -4.2 68 68 WNW 14 22 30 1016 10 16.09344 0 0
1:15 pm 13:15 Sunny 36 2.1 26 -3.4 67 67 WNW 15 24 30 1016 10 16.09344 0 0
1:35 pm 13:35 Sunny 37 2.8 26 -3.5 64 64 WNW 14 22 30 1016 10 16.09344 0 0
1:55 pm 13:55 Sunny 39 3.7 26 -3.4 60 60 WNW 13 20 29.94 1014 10 16.09344 0 0
2:15 pm 14:15 Sunny 41 4.8 25 -4 53 53 WNW 15 24 29.94 1014 10 16.09344 0 0
2:35 pm 14:35 Sunny 42 5.6 24 -4.2 50 50 WNW 14 22 29.88 1012 10 16.09344 0 0
2:55 pm 14:55 Sunny 42 5.5 24 -4.4 49 49 WNW 10 17 29.88 1012 10 16.09344 0 0
3:15 pm 15:15 Sunny 43 6.3 24 -4.6 46 46 W 10 17 29.88 1012 10 16.09344 0 0
3:35 pm 15:35 Sunny 43 6.3 24 -4.6 46 46 WNW 13 20 29.88 1012 10 16.09344 0 0
3:55 pm 15:55 Sunny 44 6.4 24 -4.3 47 47 W 12 19 29.88 1012 10 16.09344 0 0
4:15 pm 16:15 Sunny 44 6.5 25 -4 47 47 W 7 11 29.88 1012 10 16.09344 0 0
4:35 pm 16:35 Sunny 43 6.3 26 -3.5 50 50 W 9 15 29.88 1012 10 16.09344 0 0
4:55 pm 16:55 Sunny 39 4.1 27 -3 60 60 W 8 13 29.91 1013 10 16.09344 0 0
5:15 pm 17:15 Sunny 38 3.2 27 -2.9 65 65 W 7 11 29.91 1013 10 16.09344 0 0
5:35 pm 17:35 Sunny 36 2.4 27 -2.7 69 69 W 6 9 29.97 1015 10 16.09344 0 0
5:55 pm 17:55 Clear 36 2.3 28 -2.5 71 71 W 6 9 29.97 1015 10 16.09344 0 0
6:15 pm 18:15 Clear 33 0.8 27 -2.8 77 77 W 8 13 29.97 1015 10 16.09344 0 0
6:35 pm 18:35 Clear 33 0.5 27 -3 78 78 WNW 8 13 29.97 1015 10 16.09344 0 0
6:55 pm 18:55 Clear 33 0.6 27 -2.6 79 79 WNW 8 13 29.97 1015 10 16.09344 0 0
7:15 pm 19:15 Partly Cloudy 33 0.7 28 -2.5 79 79 WNW 9 15 29.97 1015 10 16.09344 0 0
7:35 pm 19:35 Mostly Cloudy 32 0.1 27 -2.6 82 82 WNW 6 9 30 1016 10 16.09344 0 0
7:55 pm 19:55 Cloudy 33 0.6 28 -2.5 80 80 NW 8 13 30 1016 10 16.09344 0 0
8:15 pm 20:15 Cloudy 32 0 27 -2.8 82 82 NW 9 15 30 1016 10 16.09344 0 0
8:35 pm 20:35 Cloudy 31 -0.3 27 -3 82 82 NW 7 11 30.03 1017 10 16.09344 0 0
8:55 pm 20:55 Cloudy 30 -1 26 -3.3 85 85 NW 7 11 30.06 1018 10 16.09344 0 0
9:15 pm 21:15 Cloudy 30 -1.1 26 -3.4 85 85 W 8 13 30.06 1018 10 16.09344 0 0
9:35 pm 21:35 Cloudy 31 -0.4 26 -3.2 82 82 WNW 8 13 30.06 1018 10 16.09344 0 0
9:55 pm 21:55 Cloudy 31 -0.6 26 -3.1 83 83 WNW 8 13 30.06 1018 10 16.09344 0 0
10:15 pm 22:15 Cloudy 30 -1 26 -3.5 83 83 WNW 7 11 30.09 1019 10 16.09344 0 0
10:35 pm 22:35 Cloudy 30 -1 26 -3.3 85 85 WNW 9 15 30.09 1019 10 16.09344 0 0
10:55 pm 22:55 Cloudy 31 -0.6 26 -3.2 83 83 W 8 13 30.09 1019 10 16.09344 0 0
11:15 pm 23:15 Partly Cloudy 30 -1 25 -3.8 82 82 WNW 8 13 30.09 1019 10 16.09344 0 0
11:35 pm 23:35 Clear 28 -2 24 -4.3 84 84 WNW 10 17 30.09 1019 10 16.09344 0 0
11:55 pm 23:55 Clear 30 -1 25 -3.7 82 82 WNW 9 15 30.09 1019 10 16.09344 0 0

Powered by AerisWeather